Volver al catálogo

SIRIUS 1

ActivoComunicacionesMEO
NORAD 26390·PAYLOAD·🇺🇸 United States

Lanzado Jun 30, 2000 desde Baikonur Cosmodrome

Loading…

Próximos Pases (próximas 24 horas)

TLE

ActualizadoSource: Space-Track

Época: Sep 14, 2026, 09:58 UTC

1 26390U 00035A   26257.41547481  .00000002  00000-0  00000-0 0  9996
2 26390  59.3845 158.1265 0002345   7.8074 174.0124  1.57877252 73276

Sigue SIRIUS 1 en tiempo real con AllMySat

Download on the App Store